This is the latest recevied weather packets stored in our database for station/object AC1IX. If no packets are shown the sender has not sent any weather packets the latest 10 day(s).
| Time | Temp. | Humidity | Pressure | Rain* | Wind** | Luminosity | Snow |
|---|---|---|---|---|---|---|---|
| 1778070592 | 16.11° C | 84% | 1009.2 hPa | 0 mm | - | 69 W/m² | - |
| 1778070289 | 16.11° C | 85% | 1009.1 hPa | 0 mm | - | 69 W/m² | - |
| 1778069987 | 16.11° C | 84% | 1009.3 hPa | 0 mm | - | 73 W/m² | - |
| 1778069685 | 16.11° C | 85% | 1009.2 hPa | 0 mm | - | 68 W/m² | - |
| 1778069380 | 16.11° C | 83% | 1009.1 hPa | 0 mm | - | 75 W/m² | - |
| 1778069078 | 16.11° C | 84% | 1009 hPa | 0 mm | - | 70 W/m² | - |
| 1778068775 | 15.56° C | 86% | 1009.1 hPa | 0 mm | - | 88 W/m² | - |
| 1778066659 | 15° C | 91% | 1008.6 hPa | 0 mm | - | 32 W/m² | - |
| 1778066356 | 15° C | 90% | 1008.8 hPa | 0 mm | - | 39 W/m² | - |
| 1778066054 | 15° C | 90% | 1008.8 hPa | 0 mm | - | 39 W/m² | - |
| 1778064841 | 12.78° C | 99% | 1008.5 hPa | 0 mm | - | 17 W/m² | - |
| 1778063933 | 11.67° C | 99% | 1008.5 hPa | 0 mm | - | 29 W/m² | - |
| 1778063631 | 11.67° C | 99% | 1008.5 hPa | 0 mm | - | 13 W/m² | - |
| 1778062723 | 10° C | 99% | 1008.5 hPa | 0 mm | - | 7 W/m² | - |
| 1778062419 | 10° C | 99% | 1008.4 hPa | 0 mm | - | 6 W/m² | - |
| 1778062117 | 9.44° C | 99% | 1008.6 hPa | 0 mm | - | 6 W/m² | - |
| 1778061513 | 9.44° C | 99% | 1008.5 hPa | 0 mm | - | 3 W/m² | - |
| 1778061210 | 9.44° C | 99% | 1008.2 hPa | 0 mm | - | 3 W/m² | - |
| 1778060000 | 9.44° C | 99% | 1008.5 hPa | 0 mm | - | 0 W/m² | - |
| 1778058488 | 9.44° C | 99% | 1008.8 hPa | 0 mm | - | 0 W/m² | - |
| 1778057881 | 9.44° C | 99% | 1008.9 hPa | 0 mm | - | 0 W/m² | - |
| 1778056667 | 10° C | 99% | 1008.9 hPa | 0 mm | - | 0 W/m² | - |
| 1778056365 | 10° C | 99% | 1008.9 hPa | 0 mm | - | 0 W/m² | - |
| 1778056062 | 10° C | 99% | 1008.8 hPa | 0 mm | - | 0 W/m² | - |
| 1778055757 | 10° C | 99% | 1008.9 hPa | 0 mm | - | 0 W/m² | - |
* Rain latest hour (hover to see other rain measurements)
** Current wind speed in m/s (hover to see current wind gust speed)